Location: Colstrip
(45.8838°N, 106.6267°W)
Time: 22:53:16
(UTC+00:00)

Envisat - Visible Passes

Search period start: 08 August 2022 00:00
Search period end: 18 August 2022 00:00
Orbit: 763 x 765 km, 98.2° (Epoch: 08 August)

Date Brightness Start Highest point End Pass type
(mag) Time Alt. Az. Time Alt. Az. Time Alt. Az.
08 Aug 5.4 10:31:49 10° NE 10:35:36 21° E 10:39:21 10° SE visible
10 Aug 4.6 10:56:20 10° NNE 11:00:57 34° E 11:05:32 10° SSE visible
11 Aug 5.6 10:20:30 10° NE 10:23:39 16° E 10:26:48 10° SE visible
12 Aug 3.7 11:21:11 10° NNE 11:26:12 57° E 11:31:12 10° S visible
13 Aug 5.0 10:44:44 10° NE 10:49:04 27° E 10:53:20 10° SSE visible
14 Aug 5.8 10:09:27 10° ENE 10:11:41 13° E 10:13:54 10° ESE visible
15 Aug 4.1 11:09:27 10° NNE 11:14:21 45° E 11:19:12 10° S visible
16 Aug 5.3 10:33:14 10° NE 10:37:08 22° E 10:41:00 10° SE visible
17 Aug 3.3 11:34:26 10° NNE 11:39:33 77° ESE 11:44:38 10° S visible
